Stündliche Wetter Otradovka

Heute, 14 April, Mittwoch

Zeit Temperatur Niederschläge Wind Luftdruck Luftfeuchtigkeit
00:00 +9°C° 0 mm 2 m/S 762 mmHg 93%
01:00 +9°C° 0.7 mm 2 m/S 761 mmHg 94%
02:00 +9°C° 0.7 mm 2 m/S 761 mmHg 95%
03:00 +9°C° 0 mm 2 m/S 761 mmHg 96%
04:00 +9°C° 0.6 mm 2 m/S 760 mmHg 96%
05:00 +9°C° 0.6 mm 2 m/S 760 mmHg 97%
06:00 +9°C° 0.6 mm 3 m/S 760 mmHg 97%
07:00 +9°C° 0.1 mm 3 m/S 760 mmHg 94%
08:00 +10°C° 0.1 mm 3 m/S 760 mmHg 91%
09:00 +11°C° 0.1 mm 4 m/S 759 mmHg 88%
10:00 +11°C° 0 mm 4 m/S 759 mmHg 87%
11:00 +11°C° 0 mm 4 m/S 759 mmHg 86%
12:00 +11°C° 0 mm 4 m/S 759 mmHg 86%
13:00 +11°C° 0 mm 4 m/S 759 mmHg 84%
14:00 +11°C° 0 mm 4 m/S 759 mmHg 83%
15:00 +11°C° 0 mm 4 m/S 759 mmHg 82%
16:00 +11°C° 0 mm 4 m/S 759 mmHg 81%
17:00 +11°C° 0 mm 3 m/S 759 mmHg 80%
18:00 +11°C° 0 mm 3 m/S 759 mmHg 78%
19:00 +10°C° 0 mm 2 m/S 759 mmHg 82%
20:00 +9°C° 0 mm 2 m/S 759 mmHg 85%
21:00 +8°C° 0 mm 2 m/S 760 mmHg 88%
22:00 +8°C° 0 mm 2 m/S 759 mmHg 88%
23:00 +8°C° 0 mm 2 m/S 759 mmHg 88%

Morgen, 15 April, Donnerstag

Zeit Temperatur Niederschläge Wind Luftdruck Luftfeuchtigkeit
00:00 +7°C° 0 mm 2 m/S 759 mmHg 89%
01:00 +8°C° 0 mm 1 m/S 759 mmHg 88%
02:00 +8°C° 0 mm 1 m/S 759 mmHg 88%
03:00 +8°C° 0 mm 1 m/S 759 mmHg 88%
04:00 +8°C° 0 mm 1 m/S 759 mmHg 89%
05:00 +7°C° 0 mm 1 m/S 759 mmHg 90%
06:00 +6°C° 0 mm 2 m/S 759 mmHg 91%
07:00 +8°C° 0 mm 2 m/S 759 mmHg 85%
08:00 +10°C° 0 mm 2 m/S 759 mmHg 80%
09:00 +12°C° 0 mm 3 m/S 759 mmHg 75%
10:00 +13°C° 0 mm 3 m/S 759 mmHg 68%
11:00 +16°C° 0 mm 3 m/S 759 mmHg 61%
12:00 +17°C° 0 mm 3 m/S 759 mmHg 55%
13:00 +17°C° 0 mm 3 m/S 759 mmHg 54%
14:00 +17°C° 0 mm 3 m/S 759 mmHg 54%
15:00 +18°C° 0 mm 2 m/S 758 mmHg 54%
16:00 +17°C° 0.1 mm 2 m/S 759 mmHg 62%
17:00 +16°C° 0.1 mm 2 m/S 759 mmHg 70%
18:00 +14°C° 0.1 mm 2 m/S 759 mmHg 78%
19:00 +13°C° 0.2 mm 2 m/S 759 mmHg 82%
20:00 +12°C° 0.2 mm 2 m/S 759 mmHg 87%
21:00 +10°C° 0.2 mm 2 m/S 759 mmHg 92%
22:00 +9°C° 0.1 mm 2 m/S 759 mmHg 91%
23:00 +9°C° 0.1 mm 2 m/S 759 mmHg 89%

übermorgen, 16 April, Freitag

Zeit Temperatur Niederschläge Wind Luftdruck Luftfeuchtigkeit
00:00 +9°C° 0.1 mm 2 m/S 759 mmHg 88%
01:00 +8°C° 0 mm 2 m/S 759 mmHg 88%
02:00 +8°C° 0 mm 2 m/S 759 mmHg 88%
03:00 +7°C° 0 mm 2 m/S 759 mmHg 88%
04:00 +7°C° 0 mm 2 m/S 759 mmHg 90%
05:00 +7°C° 0 mm 2 m/S 759 mmHg 92%
06:00 +6°C° 0 mm 2 m/S 759 mmHg 93%
07:00 +8°C° 0 mm 2 m/S 760 mmHg 87%
08:00 +9°C° 0 mm 2 m/S 760 mmHg 81%
09:00 +12°C° 0 mm 2 m/S 760 mmHg 75%
10:00 +13°C° 0 mm 2 m/S 760 mmHg 69%
11:00 +14°C° 0 mm 2 m/S 760 mmHg 63%
12:00 +16°C° 0 mm 3 m/S 760 mmHg 57%
13:00 +14°C° 0.2 mm 3 m/S 760 mmHg 63%
14:00 +13°C° 0.2 mm 4 m/S 760 mmHg 68%
15:00 +12°C° 0.2 mm 4 m/S 761 mmHg 74%
16:00 +12°C° 0.6 mm 3 m/S 761 mmHg 78%
17:00 +11°C° 0.6 mm 3 m/S 761 mmHg 83%
18:00 +10°C° 0.6 mm 2 m/S 761 mmHg 87%
19:00 +10°C° 0 mm 2 m/S 761 mmHg 88%
20:00 +9°C° 0 mm 2 m/S 761 mmHg 89%
21:00 +9°C° 0 mm 2 m/S 761 mmHg 90%
22:00 +8°C° 0.1 mm 2 m/S 762 mmHg 90%
23:00 +8°C° 0.1 mm 2 m/S 762 mmHg 90%

17 April, Samstag

Zeit Temperatur Niederschläge Wind Luftdruck Luftfeuchtigkeit
00:00 +8°C° 0.1 mm 2 m/S 762 mmHg 90%
01:00 +7°C° 0 mm 2 m/S 762 mmHg 91%
02:00 +7°C° 0 mm 2 m/S 762 mmHg 92%
03:00 +6°C° 0 mm 2 m/S 762 mmHg 93%
04:00 +6°C° 0 mm 2 m/S 762 mmHg 93%
05:00 +6°C° 0 mm 2 m/S 762 mmHg 93%
06:00 +6°C° 0 mm 2 m/S 762 mmHg 93%
07:00 +7°C° 0 mm 2 m/S 762 mmHg 86%
08:00 +9°C° 0 mm 2 m/S 762 mmHg 79%
09:00 +11°C° 0 mm 3 m/S 763 mmHg 72%
10:00 +12°C° 0 mm 3 m/S 762 mmHg 66%
11:00 +13°C° 0 mm 3 m/S 762 mmHg 60%
12:00 +14°C° 0 mm 4 m/S 762 mmHg 54%
13:00 +14°C° 0 mm 4 m/S 762 mmHg 53%
14:00 +14°C° 0 mm 4 m/S 763 mmHg 52%
15:00 +14°C° 0 mm 4 m/S 763 mmHg 52%
16:00 +13°C° 0 mm 4 m/S 763 mmHg 56%
17:00 +12°C° 0 mm 3 m/S 763 mmHg 61%
18:00 +11°C° 0 mm 3 m/S 763 mmHg 66%
19:00 +10°C° 0 mm 2 m/S 763 mmHg 71%
20:00 +9°C° 0 mm 2 m/S 763 mmHg 76%
21:00 +7°C° 0 mm 2 m/S 763 mmHg 82%
22:00 +8°C° 0 mm 1 m/S 763 mmHg 83%
23:00 +8°C° 0 mm 1 m/S 763 mmHg 85%

18 April, Sonntag

Zeit Temperatur Niederschläge Wind Luftdruck Luftfeuchtigkeit
00:00 +7°C° 0 mm 1 m/S 762 mmHg 87%
01:00 +7°C° 0 mm 1 m/S 762 mmHg 87%
02:00 +7°C° 0 mm 1 m/S 762 mmHg 88%
03:00 +7°C° 0 mm 1 m/S 762 mmHg 89%
04:00 +7°C° 0 mm 1 m/S 762 mmHg 88%
05:00 +6°C° 0 mm 2 m/S 762 mmHg 88%
06:00 +6°C° 0 mm 2 m/S 762 mmHg 87%
07:00 +7°C° 0 mm 2 m/S 762 mmHg 82%
08:00 +9°C° 0 mm 2 m/S 762 mmHg 77%
09:00 +10°C° 0 mm 2 m/S 762 mmHg 71%
10:00 +12°C° 0 mm 2 m/S 762 mmHg 71%
11:00 +12°C° 0 mm 2 m/S 762 mmHg 70%
12:00 +13°C° 0 mm 2 m/S 762 mmHg 69%
13:00 +13°C° 0 mm 2 m/S 761 mmHg 69%
14:00 +14°C° 0 mm 2 m/S 761 mmHg 68%
15:00 +14°C° 0 mm 2 m/S 761 mmHg 68%
16:00 +14°C° 0 mm 2 m/S 761 mmHg 72%
17:00 +14°C° 0 mm 2 m/S 761 mmHg 75%
18:00 +13°C° 0 mm 2 m/S 761 mmHg 78%
19:00 +12°C° 0 mm 2 m/S 761 mmHg 82%
20:00 +12°C° 0 mm 2 m/S 762 mmHg 86%
21:00 +10°C° 0 mm 2 m/S 762 mmHg 89%
22:00 +10°C° 0 mm 2 m/S 762 mmHg 91%
23:00 +10°C° 0 mm 1 m/S 762 mmHg 92%

19 April, Montag

Zeit Temperatur Niederschläge Wind Luftdruck Luftfeuchtigkeit
00:00 +10°C° 0 mm 1 m/S 761 mmHg 93%
01:00 +9°C° 0 mm 2 m/S 762 mmHg 93%
02:00 +9°C° 0 mm 2 m/S 762 mmHg 94%
03:00 +8°C° 0 mm 2 m/S 762 mmHg 94%
04:00 +8°C° 0 mm 2 m/S 762 mmHg 94%
05:00 +8°C° 0 mm 2 m/S 762 mmHg 95%
06:00 +8°C° 0 mm 3 m/S 762 mmHg 95%
07:00 +10°C° 0 mm 3 m/S 762 mmHg 89%
08:00 +11°C° 0 mm 3 m/S 762 mmHg 83%
09:00 +13°C° 0 mm 4 m/S 763 mmHg 76%
10:00 +14°C° 0 mm 4 m/S 763 mmHg 70%
11:00 +15°C° 0 mm 4 m/S 763 mmHg 63%
12:00 +16°C° 0 mm 5 m/S 763 mmHg 57%
13:00 +16°C° 0 mm 5 m/S 763 mmHg 55%
14:00 +16°C° 0 mm 6 m/S 763 mmHg 54%
15:00 +17°C° 0 mm 6 m/S 763 mmHg 53%
16:00 +16°C° 0 mm 6 m/S 763 mmHg 58%
17:00 +15°C° 0 mm 6 m/S 763 mmHg 62%
18:00 +14°C° 0 mm 6 m/S 763 mmHg 67%
19:00 +11°C° 0 mm 7 m/S 763 mmHg 71%
20:00 +10°C° 0 mm 7 m/S 763 mmHg 75%
21:00 +9°C° 0 mm 7 m/S 763 mmHg 80%
22:00 +9°C° 0 mm 7 m/S 763 mmHg 82%
23:00 +9°C° 0 mm 7 m/S 763 mmHg 85%
Mehr zeigen

Wir brauchen deine Erlaubnis

Meteoprog und unser Service Anbieter werden persönliche Daten aufbewahren, so wie Cookies, Geräte Bezeichnung oder ähnliche Technologien von deinem Gerät und Prozess, so wie Persönliche Daten Inhalte und Werbungen, genauso wie social Media und den Verkehr zu analysieren.

  • Aufbewahrung und/oder Zugang zu deiner Geräte Informationen.

    Cookies, Geräte Bezeichnung oder andere Informationen, können aufbewahrt oder Zugang zu deinem Gerät erhalten, für den Grund, der oben angegeben wird.

  • Personalisierte Werbung und Inhalte, Messungen, Einblick in das Publikum und Produkt Entwicklung.

    Werbungen und Inhalte können personalisiert werden, basierend auf ein Profil. Mehr Daten können besser personalisierte Werbungen und Inhalte hinzufügen. Werbung und Inhalte können gezeigt und gemessen werden. Einblicke über das Publikum, welche die Werbung gesehen haben und den Inhalt, können abgeleitet werden. So wie Daten können genutzt werden, um es zu verbessern oder die Benutzer Erfahrung zu verbessern das System und die Software.

Wenn du “Ich stimme zu” klickst, erlaubst du uns, die Cookies zu benutzen die Geräte Bezeichnung, den Web oder ähnliche Technologien zu benutzen. Deine Settings, können in deinem Gerät bei deinem Browser geändert werden.

Für den bestimmten Zweck, berechtigten Interessen beruhen darauf, mehr als auf den Inhalt. Du kannst mehr darüber in unseren Privaten und Cookie Politik lesen.